Regional Weather Roundup
Issued by NWS

Home | Current Version | Previous Version | Graphics & Text | Print | Product List | Glossary On
Versions: 1 2 3 4 5 6 7 8 9 10 11 12 13 14 15 16 17 18 19 20 21 22 23 24 25 26 27 28 29 30 31 32 33 34 35 36 37 38 39 40 41 42 43 44 45 46 47 48 49 50
000
ASUS45 KPSR 050400
RWRAZ

ARIZONA HOURLY REGIONAL WEATHER ROUNDUP
NATIONAL WEATHER SERVICE PHOENIX AZ
900 PM MST SAT JUL 04 2015

NOTE: FAIR INDICATES FEW OR NO CLOUDS BELOW 12,000 FEET WITH NO
SIGNIFICANT WEATHER AND/OR OBSTRUCTIONS TO VISIBILITY.

AZZ001>003-036-050500-
NORTHWEST ARIZONA

CITY           SKY/WX    TMP DP  RH WIND       PRES   REMARKS
KINGMAN        CLOUDY    83  47  28 S6        29.95R
$$

AZZ004>008-015-016-018-050500-
NORTH CENTRAL ARIZONA

CITY           SKY/WX    TMP DP  RH WIND       PRES   REMARKS
GRAND CANYON   CLOUDY    67  55  65 CALM      30.21R
WILLIAMS       CLOUDY    63  57  82 S5        30.30R
PRESCOTT       CLOUDY    76  56  49 E3        30.11R
FLAGSTAFF      NOT AVBL
PAYSON         MOCLDY    70  55  60 CALM      30.16R
PAGE           MOCLDY    85  49  28 W9        29.98R
$$

AZZ009>014-017-050500-
NORTHEAST ARIZONA

CITY           SKY/WX    TMP DP  RH WIND       PRES   REMARKS
WINSLOW        NOT AVBL
SAINT JOHNS    MOCLDY    66  59  78 N8        30.18R HAZE
WINDOW ROCK    LGT RAIN  62  57  83 NW5       30.24R
$$

AZZ023-050500-
GREATER PHOENIX AREA

CITY           SKY/WX    TMP DP  RH WIND       PRES   REMARKS
PHOENIX        MOCLDY   100  54  21 W9        29.77R
LUKE AFB       PTCLDY    95  57  28 SW6       29.77R
DEER VALLEY    PTCLDY    95  54  25 SW5       29.80R
SCOTTSDALE     PTCLDY    96  54  24 W5        29.82R
MESA-GATEWAY   MOCLDY    97  55  24 W9        29.82R
CHANDLER       MOCLDY    99  55  23 W9        29.79R
$$

AZZ027-028-050500-
SOUTHWEST MARICOPA COUNTY AND PINAL COUNTY

CITY           SKY/WX    TMP DP  RH WIND       PRES   REMARKS
CASA GRANDE    CLOUDY    95  55  26 S5        29.82R
GILA BEND      MOCLDY    95  56  26 SW9       29.76R
$$

AZZ503-504-507>509-050500-
SOUTHEAST ARIZONA

CITY           SKY/WX    TMP DP  RH WIND       PRES   REMARKS
TUCSON         CLOUDY    89  55  31 SW6       29.94R
DAVIS-MONTHAN  CLOUDY    88  55  32 SW2       29.93R
NOGALES        MOCLDY    77  57  50 E6        30.03R
SIERRA VISTA   CLOUDY    78  55  44 W10       30.10R
SAFFORD        MOCLDY    87  57  35 N10G18    29.94R
$$

AZZ020-021-025-026-031-050500-
SOUTHWEST ARIZONA

CITY           SKY/WX    TMP DP  RH WIND       PRES   REMARKS
YUMA           NOT AVBL
$$

CAZ031-033-041-043-047-048-061-050500-
SOUTHERN CALIFORNIA

CITY           SKY/WX    TMP DP  RH WIND       PRES   REMARKS
DOWNTOWN L.A.  CLOUDY    64  59  83 CALM      29.90R
L.A. AIRPORT   CLOUDY    63  59  87 W8        29.91R
SAN DIEGO      MOCLDY    68  59  73 W8        29.94R
BURBANK        CLEAR     68  58  70 SE6       29.90R
ONTARIO        PTCLDY    70  58  65 W12       29.90R
RIVERSIDE      CLEAR     70  58  65 W9        29.90R
PALM SPRINGS   CLEAR     96  56  26 NW18      29.72R
EL CENTRO NAS  CLEAR     95  64  35 S7        29.70R
IMPERIAL       CLEAR     96  64  34 S9        29.67R
BLYTHE         CLEAR     99  55  23 S16       29.70R
$$

NVZ020-UTZ003-050500-
SOUTHERN NEVADA-UTAH

CITY           SKY/WX    TMP DP  RH WIND       PRES   REMARKS
LAS VEGAS      NOT AVBL
SALT LAKE CITY CLOUDY    82  56  40 CALM      29.94R
$$

NMZ009-TXZ055-050500-
NEW MEXICO-WEST TEXAS

CITY           SKY/WX    TMP DP  RH WIND       PRES   REMARKS
ALBUQUERQUE    CLOUDY    75  56  51 S9        30.13R
EL PASO        LGT RAIN  73  68  84 W13       30.02F
$$


........................KEY........................
SKY/WX - SKY CONDITION/WEATHER
TMP    - TEMPERATURE IN FAHRENHEIT
DP     - DEW POINT IN FAHRENHEIT
RH     - RELATIVE HUMIDITY IN PERCENT
WIND   - DIRECTION AND SPEED IN MILES PER HOUR (MPH)
VRB    - VARIABLE WIND DIRECTION
PRES   - MEAN SEA LEVEL PRESSURE IN INCHES OF MERCURY
         F - FALLING PRESSURE   R - RISING PRESSURE
         S - STEADY PRESSURE
VSB    - VISIBILITY IN MILES
HX     - HEAT INDEX IN FAHRENHEIT
WCI    - WIND CHILL INDEX IN FAHRENHEIT
TC     - TEMPERATURE IN CELSIUS WHICH IS ALSO KNOWN AS
         TEMPERATURE IN CENTIGRADE
AFB    - AIR FORCE BASE
         LUKE AFB IS LUKE AIR FORCE BASE
         DAVIS-MONTHAN IS DAVIS-MONTHAN AIR FORCE BASE
NAS    - NAVAL AIR STATION
         EL CENTRO NAS IS EL CENTRO NAVAL AIR STATION
N/A    - NOT AVAILABLE




USA.gov is the U.S. government's official web portal to all federal, state and local government web resources and services.